When you browse on this site, cookies collect data to enhance your experience and personalize the content and advertising you see.
Visit our Privacy Policy to learn more. By continuing to use the site, you agree to this use of cookies and data.
  • In Latvia
  • List of Countries
  • For 7 days
  • Water Temperature
  • Weather Map
  • Weather Widgets
  • user-avatar
    Login

    Hourly Weather Tarhanka

    Today, 7 April, Tuesday

    Time Temperature Precipitation Wind Pressure Humidity
    00:00 +7°C° 0 mm 1 mps 731 mmHg 75%
    01:00 +6°C° 0 mm 1 mps 731 mmHg 75%
    02:00 +6°C° 0 mm 1 mps 731 mmHg 75%
    03:00 +6°C° 0 mm 1 mps 731 mmHg 75%
    04:00 +6°C° 0 mm 1 mps 731 mmHg 75%
    05:00 +7°C° 0 mm 1 mps 731 mmHg 76%
    06:00 +6°C° 0 mm 1 mps 732 mmHg 79%
    07:00 +8°C° 0 mm 1 mps 731 mmHg 79%
    08:00 +9°C° 0 mm 1 mps 731 mmHg 79%
    09:00 +10°C° 0 mm 2 mps 731 mmHg 78%
    10:00 +12°C° 0 mm 2 mps 730 mmHg 74%
    11:00 +14°C° 0 mm 2 mps 730 mmHg 70%
    12:00 +14°C° 0 mm 3 mps 730 mmHg 64%
    13:00 +16°C° 0 mm 3 mps 730 mmHg 62%
    14:00 +16°C° 0 mm 3 mps 729 mmHg 61%
    15:00 +15°C° 0 mm 4 mps 729 mmHg 59%
    16:00 +14°C° 0 mm 3 mps 728 mmHg 62%
    17:00 +14°C° 0 mm 3 mps 728 mmHg 65%
    18:00 +13°C° 0 mm 3 mps 728 mmHg 69%
    19:00 +11°C° 0 mm 3 mps 729 mmHg 69%
    20:00 +10°C° 0 mm 3 mps 729 mmHg 70%
    21:00 +9°C° 0 mm 3 mps 729 mmHg 70%
    22:00 +9°C° 0 mm 3 mps 729 mmHg 70%
    23:00 +9°C° 0 mm 2 mps 729 mmHg 70%

    Tomorrow, 8 April, Wednesday

    Time Temperature Precipitation Wind Pressure Humidity
    00:00 +9°C° 0 mm 2 mps 729 mmHg 69%
    01:00 +9°C° 0 mm 2 mps 729 mmHg 70%
    02:00 +9°C° 0 mm 2 mps 729 mmHg 71%
    03:00 +9°C° 0 mm 2 mps 729 mmHg 73%
    04:00 +9°C° 0 mm 2 mps 729 mmHg 74%
    05:00 +9°C° 0 mm 2 mps 730 mmHg 75%
    06:00 +10°C° 0 mm 1 mps 731 mmHg 77%
    07:00 +7°C° 0.6 mm 2 mps 731 mmHg 82%
    08:00 +6°C° 0.6 mm 2 mps 732 mmHg 87%
    09:00 +5°C° 0.6 mm 2 mps 732 mmHg 92%
    10:00 +5°C° 0.4 mm 2 mps 733 mmHg 92%
    11:00 +5°C° 0.4 mm 1 mps 733 mmHg 93%
    12:00 +5°C° 0.4 mm 1 mps 733 mmHg 94%
    13:00 +5°C° 0.6 mm 1 mps 733 mmHg 94%
    14:00 +5°C° 0.6 mm 1 mps 733 mmHg 95%
    15:00 +5°C° 0.6 mm 1 mps 733 mmHg 95%
    16:00 +5°C° 0.7 mm 1 mps 733 mmHg 96%
    17:00 +5°C° 0.7 mm 1 mps 733 mmHg 96%
    18:00 +5°C° 0.7 mm 1 mps 733 mmHg 97%
    19:00 +5°C° 0.6 mm 1 mps 733 mmHg 97%
    20:00 +5°C° 0.6 mm 1 mps 733 mmHg 97%
    21:00 +4°C° 0.6 mm 0 mps 733 mmHg 97%
    22:00 +5°C° 0.3 mm 1 mps 733 mmHg 97%
    23:00 +5°C° 0.3 mm 1 mps 733 mmHg 97%

    Day after tomorrow, 9 April, Thursday

    Time Temperature Precipitation Wind Pressure Humidity
    00:00 +5°C° 0.3 mm 1 mps 732 mmHg 98%
    01:00 +5°C° 0.8 mm 1 mps 732 mmHg 98%
    02:00 +4°C° 0.8 mm 1 mps 732 mmHg 98%
    03:00 +4°C° 0.8 mm 1 mps 732 mmHg 98%
    04:00 +4°C° 0.7 mm 1 mps 732 mmHg 98%
    05:00 +4°C° 0.7 mm 1 mps 732 mmHg 98%
    06:00 +4°C° 0.7 mm 1 mps 732 mmHg 98%
    07:00 +4°C° 1.4 mm 1 mps 732 mmHg 98%
    08:00 +4°C° 1.4 mm 1 mps 732 mmHg 98%
    09:00 +4°C° 1.4 mm 1 mps 733 mmHg 98%
    10:00 +3°C° 1.3 mm 1 mps 733 mmHg 98%
    11:00 +3°C° 1.3 mm 1 mps 733 mmHg 98%
    12:00 +3°C° 1.3 mm 1 mps 734 mmHg 98%
    13:00 +2°C° 1.6 mm 2 mps 734 mmHg 98%
    14:00 +2°C° 1.6 mm 2 mps 735 mmHg 98%
    15:00 +1°C° 1.6 mm 3 mps 735 mmHg 98%
    16:00 +1°C° 0.8 mm 3 mps 736 mmHg 97%
    17:00 +1°C° 0.8 mm 3 mps 737 mmHg 96%
    18:00 +1°C° 0.8 mm 3 mps 738 mmHg 95%
    19:00 +1°C° 0.2 mm 2 mps 739 mmHg 94%
    20:00 +1°C° 0.2 mm 2 mps 740 mmHg 94%
    21:00 +2°C° 0.2 mm 1 mps 741 mmHg 93%
    22:00 +2°C° 0 mm 1 mps 742 mmHg 93%
    23:00 +1°C° 0 mm 1 mps 742 mmHg 93%

    10 April, Friday

    Time Temperature Precipitation Wind Pressure Humidity
    00:00 0°C° 0 mm 0 mps 743 mmHg 93%
    01:00 0°C° 0 mm 0 mps 743 mmHg 92%
    02:00 -1°C° 0 mm 0 mps 743 mmHg 91%
    03:00 -1°C° 0 mm 0 mps 743 mmHg 91%
    04:00 -1°C° 0 mm 0 mps 743 mmHg 90%
    05:00 -2°C° 0 mm 0 mps 743 mmHg 88%
    06:00 -2°C° 0 mm 0 mps 743 mmHg 87%
    07:00 0°C° 0 mm 0 mps 743 mmHg 84%
    08:00 +1°C° 0 mm 0 mps 743 mmHg 81%
    09:00 +3°C° 0 mm 0 mps 743 mmHg 78%
    10:00 +4°C° 0 mm 0 mps 742 mmHg 74%
    11:00 +5°C° 0 mm 0 mps 742 mmHg 71%
    12:00 +7°C° 0 mm 1 mps 742 mmHg 68%
    13:00 +8°C° 0 mm 1 mps 742 mmHg 64%
    14:00 +8°C° 0 mm 1 mps 741 mmHg 61%
    15:00 +9°C° 0 mm 1 mps 741 mmHg 58%
    16:00 +8°C° 0 mm 1 mps 741 mmHg 61%
    17:00 +8°C° 0 mm 1 mps 741 mmHg 64%
    18:00 +7°C° 0 mm 1 mps 740 mmHg 67%
    19:00 +6°C° 0 mm 1 mps 741 mmHg 70%
    20:00 +5°C° 0 mm 1 mps 741 mmHg 73%
    21:00 +3°C° 0 mm 1 mps 741 mmHg 76%
    22:00 +3°C° 0 mm 1 mps 741 mmHg 76%
    23:00 +2°C° 0 mm 1 mps 741 mmHg 76%

    11 April, Saturday

    Time Temperature Precipitation Wind Pressure Humidity
    00:00 +2°C° 0 mm 1 mps 741 mmHg 76%
    01:00 +2°C° 0 mm 1 mps 741 mmHg 75%
    02:00 +2°C° 0 mm 1 mps 741 mmHg 74%
    03:00 +1°C° 0 mm 1 mps 740 mmHg 74%
    04:00 +1°C° 0 mm 1 mps 740 mmHg 73%
    05:00 +1°C° 0 mm 1 mps 740 mmHg 72%
    06:00 +1°C° 0 mm 1 mps 740 mmHg 71%
    07:00 +3°C° 0 mm 1 mps 740 mmHg 66%
    08:00 +5°C° 0 mm 1 mps 740 mmHg 62%
    09:00 +7°C° 0 mm 1 mps 740 mmHg 57%
    10:00 +8°C° 0 mm 1 mps 739 mmHg 53%
    11:00 +9°C° 0 mm 1 mps 739 mmHg 49%
    12:00 +11°C° 0 mm 1 mps 738 mmHg 45%
    13:00 +11°C° 0 mm 1 mps 738 mmHg 44%
    14:00 +12°C° 0 mm 1 mps 738 mmHg 42%
    15:00 +12°C° 0 mm 1 mps 737 mmHg 40%
    16:00 +12°C° 0 mm 1 mps 737 mmHg 45%
    17:00 +11°C° 0 mm 1 mps 737 mmHg 51%
    18:00 +11°C° 0 mm 1 mps 736 mmHg 56%
    19:00 +9°C° 0 mm 1 mps 736 mmHg 61%
    20:00 +8°C° 0 mm 1 mps 736 mmHg 66%
    21:00 +6°C° 0 mm 1 mps 736 mmHg 70%
    22:00 +5°C° 0 mm 1 mps 736 mmHg 70%
    23:00 +5°C° 0 mm 1 mps 735 mmHg 69%

    12 April, Sunday

    Time Temperature Precipitation Wind Pressure Humidity
    00:00 +5°C° 0 mm 1 mps 735 mmHg 69%
    01:00 +5°C° 0 mm 1 mps 735 mmHg 67%
    02:00 +5°C° 0 mm 1 mps 734 mmHg 65%
    03:00 +4°C° 0 mm 1 mps 734 mmHg 63%
    04:00 +5°C° 0 mm 1 mps 734 mmHg 62%
    05:00 +5°C° 0 mm 1 mps 734 mmHg 60%
    06:00 +5°C° 0 mm 1 mps 734 mmHg 59%
    07:00 +6°C° 0 mm 1 mps 734 mmHg 56%
    08:00 +8°C° 0 mm 1 mps 734 mmHg 53%
    09:00 +9°C° 0 mm 0 mps 733 mmHg 49%
    10:00 +12°C° 0 mm 1 mps 733 mmHg 47%
    11:00 +13°C° 0 mm 1 mps 732 mmHg 44%
    12:00 +15°C° 0 mm 1 mps 732 mmHg 42%
    13:00 +16°C° 0 mm 2 mps 732 mmHg 42%
    14:00 +16°C° 0 mm 2 mps 731 mmHg 42%
    15:00 +17°C° 0 mm 2 mps 731 mmHg 42%
    16:00 +16°C° 0 mm 2 mps 730 mmHg 45%
    17:00 +16°C° 0 mm 2 mps 730 mmHg 49%
    18:00 +15°C° 0 mm 2 mps 729 mmHg 53%
    19:00 +14°C° 0 mm 2 mps 729 mmHg 56%
    20:00 +12°C° 0 mm 2 mps 729 mmHg 59%
    21:00 +9°C° 0 mm 2 mps 729 mmHg 63%
    22:00 +9°C° 0 mm 2 mps 729 mmHg 63%
    23:00 +9°C° 0 mm 2 mps 729 mmHg 63%
    Show more